Regional Weather Roundup
Issued by NWS

Home | Current Version | Previous Version | Graphics & Text | Print | Product List | Glossary On
Versions: 1 2 3 4 5 6 7 8 9 10 11 12 13 14 15 16 17 18 19 20 21 22 23 24 25 26 27 28 29 30 31 32 33 34 35 36 37 38 39 40 41 42 43 44 45 46 47 48 49 50
000
ASUS43 KIND 271159
RWRIN

WEATHER ROUNDUP FOR INDIANA
NATIONAL WEATHER SERVICE INDIANAPOLIS IN
700 AM EST TUE JAN 27 2015

NOTE: "FAIR" INDICATES FEW OR NO CLOUDS BELOW 12,000 FEET WITH NO
SIGNIFICANT WEATHER AND/OR OBSTRUCTIONS TO VISIBILITY.

* - STATION DOES NOT REPORT WEATHER SUCH AS PRECIPITATION OR FOG.

+ - STATION NOT QUALITY CONTROLLED BY THE NATIONAL WEATHER SERVICE.
    USE DATA WITH CAUTION...ESPECIALLY DEWPOINT AND RELATIVE
    HUMIDITY OBSERVATIONS.

INZ001>003-010>013-019-020-271300-
NORTHWEST INDIANA

CITY           SKY/WX    TMP DP  RH WIND       PRES   REMARKS
GARY /AIRPORT/ CLOUDY    27  21  80 CALM      30.03R
VALPARAISO     NOT AVBL

$$

LMZ046-743>745-271300-
SOUTHERN LAKE MICHIGAN

STATION/POSITION TIME  TEMP WIND        PRES
                       AIR  DIR/SP/G
                 (UTC) (F)  (DEG/KT/KT) (MB)
MICHIGAN CITY    1100   24   50/  5/  6   N/A

$$

INZ004-005-014>016-021>024-271300-
NORTH CENTRAL INDIANA

CITY           SKY/WX    TMP DP  RH WIND       PRES   REMARKS
ELKHART        CLOUDY    21   9  58 NE5       30.04  WCI  15
GOSHEN         CLOUDY    22  14  71 NE6       30.02R WCI  14
6HR MIN TEMP:  21; 6HR MAX TEMP:  22;

SOUTH BEND     CLOUDY    22  13  68 NE3       30.03R
6HR MIN TEMP:  22; 6HR MAX TEMP:  24;


$$

INZ006>009-017-018-025>027-271300-
NORTHEAST INDIANA

CITY           SKY/WX    TMP DP  RH WIND       PRES   REMARKS
ANGOLA *+      CLEAR     16  10  79 CALM      30.00R
FORT WAYNE     CLOUDY    18  11  74 NE7       30.02R WCI   9
6HR MIN TEMP:  18; 6HR MAX TEMP:  19;


$$

INZ028-029-035-036-043>045-051>053-271300-
WEST CENTRAL INDIANA

CITY           SKY/WX    TMP DP  RH WIND       PRES   REMARKS
GREENCASTLE +  CLOUDY    28  23  80 N5        29.97R FOG     WCI  23
LAFAYETTE      CLOUDY    25  24  96 NE7       30.01R FOG     WCI  17
6HR MIN TEMP:  25; 6HR MAX TEMP:  26;

TERRE HAUTE    CLOUDY    29  27  92 NE3       29.99R FOG
6HR MIN TEMP:  28; 6HR MAX TEMP:  29; 6HR PCP: TRACE;


$$

INZ030>032-037>040-046>048-054>057-064-065-271300-
CENTRAL INDIANA

CITY           SKY/WX    TMP DP  RH WIND       PRES   REMARKS
COLUMBUS       FLURRIES  27  23  86 NE7       29.97  WCI  19
INDIANAPOLIS   LGT SNOW  24  23  96 NE6       29.97R FOG     WCI  17
6HR MIN TEMP:  24; 6HR MAX TEMP:  25; 6HR PCP:  0.01;

-EAGLE CREEK   CLOUDY    26  22  84 NE5       29.97R WCI  20
6HR MIN TEMP:  25; 6HR MAX TEMP:  26; 6HR PCP:  0.01;

KOKOMO *+      CLOUDY    21  18  86 NE6       30.00R WCI  14
MT COMFORT *+  CLOUDY    25  16  68 NE5       29.98R WCI  19
SHELBYVILLE    CLOUDY    25  20  81 NE5       29.97R WCI  19
6HR MIN TEMP:  25; 6HR MAX TEMP:  28; 6HR PCP: TRACE;


$$

INZ033-034-041-042-049-050-058-059-271300-
EAST CENTRAL INDIANA

CITY           SKY/WX    TMP DP  RH WIND       PRES   REMARKS
MUNCIE         CLOUDY    20  12  71 E6        29.98R WCI  12
6HR MIN TEMP:  20; 6HR MAX TEMP:  21; 6HR PCP: TRACE;


$$

INZ060-061-067>069-081>083-085>088-271300-
SOUTHWEST INDIANA

CITY           SKY/WX    TMP DP  RH WIND       PRES   REMARKS
EVANSVILLE     CLOUDY    33  30  88 CALM      29.98R FOG
6HR MIN TEMP:  32; 6HR MAX TEMP:  33; 6HR PCP: TRACE;

HUNTINGBURG *+ CLOUDY    30  27  86 CALM      29.97R
6HR MIN TEMP:  28; 6HR MAX TEMP:  30;


$$

INZ062-063-066-070>080-084-089>092-271300-
SOUTH CENTRAL AND SOUTHEAST INDIANA

CITY           SKY/WX    TMP DP  RH WIND       PRES   REMARKS
BLOOMINGTON    CLOUDY    28  26  92 NE6       29.96R FOG     WCI  22
6HR MIN TEMP:  27; 6HR MAX TEMP:  28; 6HR PCP: TRACE;

SEYMOUR +      CLOUDY    30  28  93 N5        29.97  WCI  25

$$




USA.gov is the U.S. government's official web portal to all federal, state and local government web resources and services.